Погода в Балашове

Хотите узнать прогноз погоды в Балашове? Тогда Вам сюда: Погода в Балашове

Поиск расширенной информации на нашем сайте:

Полезная информация:

Новости сайта



02.01.2020
Опубликован Долгосрочный прогноз погоды по городам России и ближнего зарубежья на январь 2020 года.
Карты: Прогноз на январь и февраль 2020 года, Сравнение прогнозируемой аномалии приземной температуры воздуха на январь 2020 года по разным моделям.




Погода в Балашове - сегодня

Время (UTC), дата Ветер
(°,м/с) 
Видим.   Явления Облачность Т
(°С)
Тd
(°С)
f(%) Тe
(°С)
Pmin
(гПа)
dP
(гПа)
Po
(мм)
O2
(г/м3)
Тmin Tmax R s Состояние
почвы
12 16.04.21 230 (ЮЗ) 20000 м    8/1 1000 м кучево-дожд., средняя, верхняя 
[Cb cap|Ac cast|Ci]
+21.2 +3.8 32 +21  1016  0.3  748  279           
15 16.04.21 260 (З) 20000 м    3/0 средняя, верхняя 
[Ac trans|Ci ing]
+20.2 +3.6 33 +20  1016.2  0.1  748  280    +21.7       
18 16.04.21 230 (ЮЗ) 20000 м    ясно 
+12.9 +3.5 53 +13  1017.7  749  288           
21 16.04.21 350 (С) 20000 м    3/0 средняя 
[Ac lent]
+13.2 +0.4 41 +14  1018  0.3  749  288           
00 17.04.21 030 (СВ) 20000 м    3/0 средняя 
[Ac lent]
+11.2 +2.1 53 +11  1018.1  0.1  749  290           
03 17.04.21 300 (СЗ) 20000 м    10/0 верхняя 
[Ci]
+9.5 +3.1 64 +10  1017.4  -0.8  749  291  +8        сухая 
06 17.04.21 тихо ()   20000 м    10/0 средняя, верхняя 
[Ac trans|Ci fib]
+14.3 +4.1 50 +14  1016.5  -0.5  748  286           
09 17.04.21 250 (З) 20000 м    10/0 средняя, верхняя 
[Ac trans|Ci fib]
+16.6 +3.5 42 +16  1016.3  748  284           
12 17.04.21 250 (З) 5{11}  20000 м    10/0 средняя, верхняя 
[Ac trans|Ci fib]
+12.2 +6.5 68 +11  1018.2  0.8  749  288           
15 17.04.21 160 (Ю) 10 км  в посл. час ливневой дождь  10/8 900 м кучево-дожд., средняя 
[Cb cap|Ac As]
+9.8 +8.3 90 +11  1019.1  0.8  750  290    +18.2     
18 17.04.21 230 (ЮЗ) 10 км  {ливн. осадки}  4/0 средняя 
[Ac trans]
+7 +6.9 99 +6  1020.1  0.8  751  294           
21 17.04.21 270 (З) 10 км    4/0 средняя 
[Ac trans]
+4.6 +3.9 95 +5  1020.2  0.1  751  297           
00 18.04.21 тихо ()   2000 м  дымка  10/10 240 м 
[St]
+0.8 +0.4 97 +1  1020.1  -0.4  750  301           
03 18.04.21 тихо ()   1000 м  туман  ?/?  
+0.9 +0.6 98 +1  1019.9  -0.3  750  301  -0.4    0.3    влажная 
06 18.04.21 210 (ЮЗ) 10 км  {туман}  10/0 верхняя 
[Ci fib]
+9.6 +8.5 93 +10  1019.4  0.1  750  291           
09 18.04.21 040 (СВ) 20000 м    10/8 1000 м верхняя 
[Cu med, cong|Ci fib]
+14.1 +4.7 53 +15  1018.7  -0.4  750  287           
12 18.04.21 320 (СЗ) 20000 м    10/8 1000 м верхняя 
[Cu med, cong|Ci fib]
+14.8 +2.9 45 +15  1018  -0.6  749  286           
15 18.04.21 320 (СЗ) 20000 м    10/8 900 м верхняя 
[Cu med, cong|Ci fib]
+14.6 +2.8 45 +16  1017.8  -0.2  749  286    +16.6       
18 18.04.21 300 (СЗ) 20000 м    10/0 средняя, верхняя 
[Ac trans|Ci fib]
+11.4 +2.8 55 +13  1017.8  0.1  749  289           
21 18.04.21 340 (С) 20000 м    8/0 средняя 
[Ac trans]
+9 +4.2 72 +10  1017.6  -0.4  749  291           
00 19.04.21 350 (С) 20000 м    4/0 верхняя 
[Ci fib]
+5.5 +4.2 91 +6  1016.5  -1.3  748  295           
03 19.04.21 330 (СЗ) 20000 м    10/0 средняя, верхняя 
[Ac trans|Ci fib]
+6.3 +4.4 88 +6  1016.3  -0.2  748  294  +5.2        влажная 
06 19.04.21 330 (СЗ) 20000 м    9/0 средняя 
[Ac As]
+11.4 +5.9 69 +12  1016.1  0.2  748  288           
09 19.04.21 010 (С) 20000 м    10/5 1000 м кучево-дожд., средняя 
[Cb cap|Ac und]
+12.4 +5.8 64 +12  1016.1  0.1  748  287           
12 19.04.21 040 (СВ) 20000 м    10/0 средняя 
[Ac und]
+13.3 +2.4 48 +13  1015.9  0.1  748  287           
Время (UTC), дата Ветер
(°,м/с) 
Видим.   Явления Облачность Т
(°С)
Тd
(°С)
f(%) Тe
(°С)
Pmin
(гПа)
dP
(гПа)
Po
(мм)
O2
(г/м3)
Тmin Tmax R s Состояние
почвы

Для получения пояснительной информации подведите курсор к названию столбца.

ПОГОДА в Балашове - архив

Всё, что Вы хотите узнать о погоде в Балашове - удобно и подробно!

Выберите нужную дату (начиная с 1 января 2019* года) и нажмите кнопку "Найти".
Будут отображены архивные сводки погоды по пункту Балашов, начиная с указанной даты.


Отображать данные в формате CSV (для использования в таблицах Excel)


Внимание! Наш архив погоды предназначен исключительно для личного некоммерческого использования в познавательных целях. Если Вам необходимы официальные справки о состоянии погоды (для производственных, юридических, коммерческих и т.п. целей), обращайтесь в органы Росгидромета.

*Примечание: данная дата относится к архиву по метеостанциям СССР (Россия, СНГ, Балтия).
Архив по метеостанциям Зарубежной Европы и Азии (кроме Китая) хранится 10 дней, по другим регионам земного шара (Китай, Африка, Америка, Австралия, Океания) - 1 день.

Балашов - район местоположения метеостанции


Название, широта, долгота, высота метеостанции:
Балашов 51.6°ш. 43.2°д. 159 м над ур. моря [Российская Федерация]

Дополнительная информация

В oтличие oт бoльшинства пoгoдных сайтoв мы публикуем пoдрoбную метеoинфoрмацию в детальнoм прoфессиoнальнoм фoрмате.

Характеристики температуры и влажнoсти вoздуха измеряются на высoте 2 м в тени вдали oт зданий и деревьев.
Скoрoсть ветра измеряется на высoте 10 м (на урoвне рoста челoвека скoрoсть ветра ниже в 1.5-2 раза). Если метеoстанция нахoдится в гoрoде или в лесу, тo скoрoсть ветра занижена на 2-4 м/с пo сравнению с oткрытым местoм. Скoрoсть ветра над акватoриями крупных рек и oзёр, а также на вершинах хoлмoв на 2-5 м/с выше, чем в oбычных услoвиях.
Атмoсфернoе давление в разных тoчках местнoсти мoжет значительнo oтличаться oт давления на метеoстанции, в зависимoсти oт услoвий рельефа (при пoдъёме на 10 м давление пoнижается примернo на 1 мм рт.ст.).